Location: St. Louis
(38.6270°N, 90.1994°W)
Time: 11:03:50
(UTC-06:00)

A-11 Canister half - Pass Details

Date: 14 December 2021
Orbit: 1524 x 1684 km, 47.3° (Epoch: 25 January)

Event Time Altitude Azimuth Distance (km) Brightness Sun altitude
Rises 01:30:05 0° 279° (W) 4,929 - -64.7°
Reaches altitude 10° 01:33:25 10° 285° (WNW) 3,947 - -64.1°
Maximum altitude 01:43:18 52° 360° (N) 2,010 - -62.4°
Exits shadow 01:51:11 17° 71° (ENE) 3,371 11.0 -61.0°
Drops below altitude 10° 01:53:05 10° 76° (ENE) 3,907 11.4 -60.7°
Sets 01:56:21 0° 81° (E) 4,877 12.1 -60.1°
